Regional Weather Roundup
Issued by NWS

Home | Current Version | Previous Version | Text Only | Print | Product List | Glossary On
Versions: 1 2 3 4 5 6 7 8 9 10 11 12 13 14 15 16 17 18 19 20 21 22 23 24 25 26 27 28 29 30 31 32 33 34 35 36 37 38 39 40 41 42 43 44 45 46 47 48 49 50
000
ASUS43 KTOP 011808
RWRKS

WEATHER ROUNDUP FOR KANSAS
NATIONAL WEATHER SERVICE GOODLAND KS
100 PM CDT WED APR 01 2015

NOTE:  "FAIR" INDICATES FEW OR NO CLOUDS BELOW 12,000 FEET WITH NO
SIGNIFICANT WEATHER AND/OR OBSTRUCTIONS TO VISIBILITY.

KSZ001>006-013>018-027>032-041>047-011900-
NORTHWEST KANSAS

CITY           SKY/WX    TMP DP  RH WIND       PRES   REMARKS
GOODLAND       MOSUNNY   77  37  23 S12       29.66F
6HR MIN TEMP:  48; 6HR MAX TEMP:  78;

HAYS           FAIR      79  48  34 S24G33    29.68F
HILL CITY      FAIR      81  44  27 SW15G26   29.66F
6HR MIN TEMP:  57; 6HR MAX TEMP:  81;

RUSSELL        FAIR      81  46  29 S25G39    29.68F
6HR MIN TEMP:  55; 6HR MAX TEMP:  81;

$$

KSZ061>065-074>080-084>089-011900-
SOUTHWEST KANSAS

CITY           SKY/WX    TMP DP  RH WIND       PRES   REMARKS
DODGE CITY     FAIR      78  50  37 S20G28    29.72F
6HR MIN TEMP:  54; 6HR MAX TEMP:  78;

ELKHART          N/A     81  40  23 S7          N/A
GARDEN CITY    FAIR      77  43  29 S17       29.69F
6HR MIN TEMP:  48; 6HR MAX TEMP:  78;

GREAT BEND     FAIR      81  46  30 S28G37    29.70F
LIBERAL        FAIR      79  45  29 S14G22    29.74F
PRATT          FAIR      79  48  34 S25G31    29.74F
$$

KSZ066>073-081>083-090>101-011900-
SOUTHEAST KANSAS

CITY           SKY/WX    TMP DP  RH WIND       PRES   REMARKS
CHANUTE        FAIR      77  56  48 S20G26    29.84F
6HR MIN TEMP:  52; 6HR MAX TEMP:  78;

COFFEYVILLE    FAIR      72  59  63 S17       29.85F
6HR MIN TEMP:  53; 6HR MAX TEMP:  75;

HUTCHINSON     FAIR      78  51  38 S21G26    29.76F
6HR MIN TEMP:  49; 6HR MAX TEMP:  78;

MEDICINE LODGE   N/A     80  56  43 S17       29.73F
NEWTON         FAIR      75  50  41 S18       29.80F
PARSONS        FAIR      74  58  57 S16G22    29.86F
6HR MIN TEMP:  53; 6HR MAX TEMP:  77;

WICHITA INTL   FAIR      78  53  41 S17G30    29.77F
6HR MIN TEMP:  52; 6HR MAX TEMP:  78;

WICHITA JABRA  FAIR      78  53  41 S18G31    29.78F
6HR MIN TEMP:  53; 6HR MAX TEMP:  78;

WICHITA MCCONL FAIR      78  55  45 SE18G25   29.78F
WINFIELD       FAIR      79  57  46 S13G20    29.80F
6HR MIN TEMP:  53; 6HR MAX TEMP:  79;

$$

KSZ007>012-019>026-033>040-048>060-102>105-011900-
NORTHEAST KANSAS

CITY           SKY/WX    TMP DP  RH WIND       PRES   REMARKS
CONCORDIA      FAIR      79  48  33 S26G32    29.71F
6HR MIN TEMP:  54; 6HR MAX TEMP:  79;

EMPORIA        FAIR      77  52  41 S20G29    29.80F
6HR MIN TEMP:  50; 6HR MAX TEMP:  78;

LAWRENCE       FAIR      77  56  48 S14       29.80F
6HR MIN TEMP:  45; 6HR MAX TEMP:  77;

MANHATTAN      FAIR      77  50  38 S15G25    29.75F
6HR MIN TEMP:  53; 6HR MAX TEMP:  79;

MARYSVILLE     FAIR      79  48  34 S20G28    29.74F
OLATHE IND     FAIR      76  57  51 S18       29.82F
6HR MIN TEMP:  53; 6HR MAX TEMP:  77;

OLATHE EXE     FAIR      75  58  55 S17       29.83F
6HR MIN TEMP:  54; 6HR MAX TEMP:  75;

SALINA         FAIR      80  49  33 S20G28    29.73F
6HR MIN TEMP:  54; 6HR MAX TEMP:  80;

TOPEKA BILLARD FAIR      77  48  35 S15G23    29.79F
6HR MIN TEMP:  51; 6HR MAX TEMP:  79;

TOPEKA FORBES  FAIR      81  50  33 S15       29.79F
6HR MIN TEMP:  53; 6HR MAX TEMP:  81;

$$


USA.gov is the U.S. government's official web portal to all federal, state and local government web resources and services.